LUCH-5B

Last updated on Mon Sep 07 2026 00:02:58 GMT+0000 (Coordinated Universal Time)

1 38977U 12061A 26249.23216065 -.00000150 00000+0 00000+0 0 9997 2 38977 10.6536 49.0506 0006148 162.7839 200.7999 1.00269979 50426
UTC large
Height (km)
Speed (km/s)
/
Latitude / Longitude
Inclination (degrees)
Orbital Period (minutes)
Azimuth
Elevation
Range (km)
Doppler Factor

Next 0 passes for location: London (51.5072 / 0.1276)

No passes found over London.
LUCH-5B